Location: Castillon
(43.0896°N, 0.2156°E)
Time: 17:46:49
(UTC+00:00)

Cosmos 2016 Rocket - Pass Details

Date: 16 June 2021
Orbit: 947 x 1000 km, 83.0° (Epoch: 01 August)

Event Time Altitude Azimuth Distance (km) Brightness Sun altitude
Rises 22:04:05 0° 350° (N) 3,628 8.4 -18.4°
Reaches altitude 10° 22:06:35 10° 349° (N) 2,678 7.4 -18.6°
Maximum altitude 22:12:41 78° 265° (W) 975 4.0 -19.1°
Enters shadow 22:16:00 29° 184° (S) 1,672 4.7 -19.4°
